User: anonymous
Location: Sunrise Point
(46.9200°N, 121.5900°W)
Time: 06:57:36
(UTC-07:00)
Language:

Cosmos 2058 - Orbit

View from above orbital plane
View from above orbital plane
View from above satellite
View from above satellite

Ground track
Ground track

The orbit data is extracted from the following two-line orbital elements,

1 20465U 90010A   14203.54271265  .00000361  00000-0  30676-4 0  1728
2 20465 082.4913 186.2134 0014864 259.9294 100.0250 14.94911469326696
Epoch (UTC): 22 July 2014 13:01:30
Eccentricity: 0.0014864
inclination: 82.4913°
perigee height: 572 km
apogee height: 593 km
right ascension of ascending node: 186.2134°
argument of perigee: 259.9294°
revolutions per day: 14.94911469
mean anomaly at epoch: 100.0250°
orbit number at epoch: 32669

The dashed part of the orbit path shows where the satellite is in the earth's shadow,  

DLR